Temperature
21 20 20 20 19 19 19 18 18 18 18 18 17 17 17 17 17 17 16 16 16 16 16 16 16 16 16 16 15 15 15 15 14 13 13 13 13 13 13 13 13 13 12
21 20 20 20 19 19 18 18 18 18 18 17 17 17 17 16 16 16 16 16 16 16 16 16 15 15 15 15 15 15 15 15 14 14 13 13 13 13 12 12 12 12 12
21 20 20 19 19 19 18 18 18 18 17 17 17 16 16 16 16 16 16 16 16 15 15 15 15 15 15 15 15 15 14 14 14 14 13 12 12 12 12 12 12 11 11
20 20 20 19 19 18 18 18 18 17 17 17 16 16 16 16 16 16 15 15 15 15 15 15 15 15 15 14 14 14 14 14 13 13 13 12 12 12 12 11 11 11 11
20 20 20 19 19 18 18 18 17 17 17 16 16 16 16 15 15 15 15 15 15 15 15 14 14 14 14 14 14 14 14 13 13 13 12 12 12 11 11 11 11 11 10
20 20 19 19 18 18 18 17 17 17 16 16 16 16 15 15 15 15 15 15 14 14 14 14 14 14 14 14 13 13 13 13 13 13 12 12 11 11 11 11 11 10 10
20 20 19 19 18 18 17 17 17 16 16 16 15 15 15 15 15 14 14 14 14 14 14 14 14 13 13 13 13 13 13 12 12 12 12 12 11 11 11 11 10 10 10
20 19 19 18 18 18 17 17 16 16 16 15 15 15 15 14 14 14 14 14 14 14 13 13 13 13 13 13 13 12 12 12 12 12 12 11 11 11 11 11 10 10 10
19 19 18 18 18 17 17 17 16 16 16 15 15 14 14 14 14 14 14 14 13 13 13 13 13 13 12 12 12 12 12 11 11 11 11 11 11 10 10 10 10 10 10
19 19 18 18 17 17 17 16 16 16 15 15 15 14 14 14 14 13 13 13 13 13 13 12 12 12 12 12 12 12 11 11 11 11 10 10 10 10 10 10 10 10 10
19 18 18 17 17 17 16 16 16 15 15 15 14 14 14 14 13 13 13 13 13 13 12 12 12 12 12 11 11 11 11 11 11 10 10 10 10 10 10 10 10 10 9
18 18 17 17 17 16 16 16 15 15 15 14 14 14 13 13 13 13 13 13 12 12 12 12 12 11 11 11 11 11 11 10 10 10 10 10 10 10 9 9 9 9 9
18 17 17 16 16 16 16 15 15 15 14 14 14 14 13 13 13 13 12 12 12 12 12 11 11 11 11 11 11 10 10 10 10 10 10 10 9 9 9 9 9 9 9
17 17 16 16 16 15 15 15 15 15 14 14 14 13 13 13 13 12 12 12 12 11 11 11 11 11 10 10 10 10 10 10 10 10 10 9 9 9 9 9 9 9 9
17 16 16 16 15 15 15 14 14 14 14 14 14 14 13 13 13 12 12 12 12 11 11 11 11 10 10 10 10 10 10 10 10 9 9 9 9 9 9 9 9 9 9
16 16 16 15 15 14 14 14 14 14 13 13 13 13 13 13 12 12 12 11 11 11 11 11 10 10 10 10 10 10 10 9 9 9 9 9 9 9 9 9 8 8 8
16 16 15 15 14 14 14 14 14 13 13 13 13 13 13 12 12 12 11 11 11 10 10 10 10 10 10 10 10 9 9 9 9 9 9 9 9 9 9 8 8 8 8
15 15 15 14 14 14 14 13 13 13 13 13 13 12 12 12 12 11 11 11 10 10 10 10 10 10 10 10 10 9 9 9 9 9 9 9 9 9 8 8 8 8 8
15 15 14 14 14 14 13 13 13 13 13 13 12 12 12 11 11 11 11 11 11 10 10 10 10 10 10 10 9 9 9 9 9 9 9 9 8 8 8 8 8 8 8
15 14 14 14 13 13 13 13 13 13 13 12 12 12 12 11 11 11 11 11 10 10 10 10 10 10 10 10 9 9 9 9 9 9 8 8 8 8 8 8 8 8 8
14 14 14 13 13 13 13 13 13 13 12 12 12 12 12 12 11 11 11 11 10 10 10 10 10 10 10 9 9 9 9 9 9 8 8 8 8 8 8 8 8 7 7
14 14 13 13 13 13 13 13 12 12 12 12 12 12 11 11 11 11 11 11 10 10 10 10 10 10 9 9 9 9 9 9 8 8 8 8 8 8 7 7 7 7 7
13 13 13 13 13 12 12 12 12 12 12 12 12 11 11 11 11 11 11 11 10 10 10 10 9 9 9 9 9 9 9 8 8 8 8 8 7 7 7 7 7 7 7
13 13 13 13 12 12 12 12 12 12 12 12 11 11 11 11 11 11 10 10 10 10 10 10 9 9 9 9 9 9 8 8 8 8 8 7 7 7 7 7 7 7 6
13 13 13 12 12 12 12 12 12 12 12 11 11 11 11 11 11 10 10 10 10 10 10 9 9 9 9 9 8 8 8 8 8 7 7 7 7 7 6 6 6 6 6
12 12 12 12 12 12 12 12 12 12 11 11 11 11 11 11 11 10 10 10 10 10 9 9 9 9 8 8 8 8 8 7 7 7 7 7 6 6 6 6 6 6 6
Wind_Speed
6 5 5 4 4 4 3 3 2 2 3 3 2 3 3 3 3 3 3 4 4 4 4 4 4 3 3 3 2 2 3 4 4 2 2 3 3 4 5 8 9 10 10
7 7 6 5 5 4 4 3 3 3 3 3 3 4 4 4 4 4 4 5 5 5 5 5 5 4 5 3 3 3 3 3 5 5 2 2 3 3 4 5 6 8 9
7 7 6 5 5 5 4 4 4 4 4 4 4 4 4 4 4 4 5 5 5 5 5 5 4 5 5 4 4 4 4 5 5 6 3 2 2 3 4 4 6 6 8
8 7 7 6 5 5 4 4 4 4 4 4 4 4 4 4 4 4 5 5 5 5 5 5 5 5 4 4 4 4 5 5 5 6 4 3 2 2 3 4 4 3 4
8 7 6 5 6 5 4 4 4 4 4 4 4 4 4 4 4 5 5 5 5 5 5 5 6 7 7 5 5 4 5 5 5 5 4 3 3 2 2 2 3 3 3
9 8 7 7 6 5 5 4 5 5 4 5 5 5 5 4 6 8 6 5 5 5 5 5 5 7 8 8 8 8 7 6 5 4 3 4 2 2 2 3 3 2 1
8 8 7 7 7 5 6 5 5 5 5 5 5 5 5 5 8 9 9 6 6 5 5 5 5 6 6 5 7 9 8 7 6 6 5 4 3 3 3 3 3 2 2
7 7 7 8 7 6 6 6 5 5 5 4 4 4 4 5 7 9 10 7 6 5 5 5 5 5 5 5 6 6 6 5 4 4 4 3 3 3 4 4 4 3 3
7 6 6 7 7 7 7 6 5 5 5 4 4 4 4 4 6 8 8 5 5 5 4 4 5 5 6 8 7 7 6 5 7 8 8 7 7 7 7 5 4 4 2
7 6 6 7 7 7 7 6 5 5 5 5 4 4 4 4 5 7 7 5 5 4 4 4 6 5 7 7 6 6 5 3 3 5 6 6 6 5 5 5 5 4 2
6 6 6 6 6 7 6 6 6 6 6 5 4 3 3 3 5 7 7 5 5 4 3 2 2 5 7 7 6 4 4 3 3 4 4 4 4 3 3 3 3 5 4
7 7 6 6 6 6 6 6 6 7 7 5 4 3 2 2 3 5 7 7 6 5 3 1 1 5 6 6 5 6 7 6 4 4 4 3 2 2 1 3 3 3 3
7 7 7 6 5 6 7 7 6 6 6 5 4 3 1 1 1 4 6 7 6 4 2 3 3 5 5 5 6 7 6 4 4 3 2 1 0 0 1 3 4 5 5
8 7 7 7 6 5 4 5 5 5 6 5 5 4 3 2 1 1 2 3 4 3 2 3 4 5 4 3 4 4 3 3 3 2 1 0 1 2 2 2 2 2 3
8 8 7 6 6 5 4 3 4 4 5 7 6 6 6 4 4 6 6 4 3 3 3 3 3 3 3 3 2 2 2 2 2 1 2 2 1 1 1 1 2 2 2
8 8 7 6 6 5 5 4 6 3 3 5 6 7 5 6 8 7 7 7 7 7 5 3 2 2 2 1 1 1 1 1 1 1 1 1 1 1 1 1 1 1 1
9 8 7 7 6 6 6 6 4 3 5 4 5 7 7 8 9 8 8 7 7 8 4 2 2 2 2 2 2 2 1 1 1 1 1 1 1 1 1 1 1 1 0
8 9 8 7 7 6 6 6 6 5 3 1 1 5 8 8 9 8 8 7 3 3 2 3 3 3 2 2 2 2 1 1 1 1 1 1 1 1 1 1 1 2 2
7 6 6 6 6 6 6 6 5 6 5 4 2 1 4 5 6 6 7 4 4 3 3 3 3 3 3 3 3 3 2 1 1 1 1 1 1 1 1 2 2 2 2
6 8 7 6 6 6 6 6 6 6 5 5 5 4 4 4 3 3 3 3 4 4 3 4 3 3 3 3 3 3 2 2 1 1 1 1 1 2 2 2 2 2 2
5 6 8 6 5 6 6 6 6 6 6 5 5 6 9 6 5 5 5 5 4 4 4 4 3 3 3 3 3 3 3 2 1 1 1 0 1 1 2 2 2 2 2
6 5 5 5 4 5 5 6 6 6 6 6 4 4 9 5 4 4 5 5 5 4 4 4 3 3 3 4 4 4 3 3 2 2 1 1 1 1 1 1 1 1 1
6 6 5 5 4 5 5 5 5 6 6 6 6 5 6 5 5 5 5 5 4 4 4 5 4 3 4 5 6 6 5 4 4 3 2 1 1 1 1 1 2 1 1
6 6 6 5 5 5 5 5 5 5 6 6 6 6 6 6 5 5 5 4 4 4 5 6 6 6 7 6 6 6 6 5 5 4 4 3 2 1 1 1 1 2 2
5 5 5 5 5 5 5 5 5 5 5 5 5 5 5 5 5 5 4 4 5 5 5 6 6 7 8 8 7 5 4 4 3 3 3 2 2 2 1 1 1 1 1
5 5 5 4 4 4 5 5 5 5 5 4 5 5 5 5 5 5 4 4 4 4 5 6 8 8 7 7 7 6 5 5 4 3 3 2 1 1 1 0 1 1 1
Wind_Direction
153 146 140 136 133 125 118 113 106 84 79 79 74 68 57 46 42 51 52 49 56 45 42 55 44 40 49 46 64 82 96 119 125 92 74 80 81 84 80 79 79 77 75
148 139 136 128 122 120 116 105 95 86 77 78 77 70 65 57 49 57 61 55 59 54 44 50 41 52 52 48 68 81 91 102 125 119 90 80 83 104 100 91 84 81 80
139 136 133 129 126 126 121 107 97 91 80 74 75 73 68 62 58 61 69 68 68 63 57 56 44 57 56 53 66 77 85 96 105 122 110 91 83 96 94 87 86 81 83
139 139 139 140 135 128 121 112 103 97 87 79 79 75 74 71 69 72 75 71 67 64 64 62 53 57 61 68 76 79 92 95 98 108 107 100 99 104 98 96 84 62 74
143 143 147 138 129 123 118 112 101 96 95 86 76 64 63 72 75 86 84 82 74 68 59 59 62 63 63 72 91 96 100 103 106 110 111 101 99 113 117 117 109 89 57
147 150 148 138 134 131 127 117 103 91 84 79 73 71 64 68 80 87 94 83 76 78 72 56 58 51 53 62 78 88 103 121 124 119 113 123 128 130 122 128 121 103 63
148 151 150 146 144 145 139 123 116 106 96 87 80 78 68 60 79 89 93 91 82 78 75 64 60 51 52 63 69 70 70 86 116 135 134 144 147 158 140 128 130 123 139
146 150 154 152 150 143 133 130 123 116 109 101 89 82 75 62 77 90 94 87 80 72 72 76 76 52 58 77 79 70 61 55 72 101 129 138 143 150 153 153 147 113 75
146 150 154 154 151 149 145 142 138 126 114 108 103 93 86 62 78 99 101 93 82 66 61 64 76 69 62 79 85 81 65 45 58 76 92 97 102 114 121 108 101 102 85
158 155 153 153 152 154 154 148 140 131 127 120 103 96 97 84 89 107 111 109 96 79 59 48 56 72 69 77 92 98 90 70 73 69 63 68 75 88 107 126 139 130 123
150 143 142 144 147 149 145 140 137 133 127 121 113 98 95 98 99 110 117 122 125 111 92 59 38 66 69 72 83 99 117 112 92 86 76 61 56 55 57 84 131 142 142
140 137 139 141 144 141 139 137 139 139 136 134 124 106 75 79 103 116 120 122 128 122 125 125 90 75 69 67 71 82 87 86 85 81 77 64 62 49 30 51 80 115 144
139 139 141 138 133 140 144 146 146 148 150 152 148 146 138 71 97 121 123 126 124 119 135 131 98 77 67 62 64 74 78 83 86 88 90 70 302 241 71 53 44 54 52
148 147 145 142 138 137 141 149 154 161 161 159 162 168 168 156 158 140 128 125 114 100 94 91 75 67 67 57 50 62 74 101 117 124 143 28 39 58 65 68 68 49 45
151 151 148 146 146 138 127 132 160 172 178 173 180 176 171 180 205 176 156 156 153 147 119 79 65 61 57 44 44 47 60 83 91 93 94 76 67 74 57 61 86 85 84
156 157 157 155 150 144 134 93 51 78 130 166 172 168 175 176 166 164 163 157 149 138 115 102 109 125 144 149 135 83 58 91 114 119 119 131 139 141 119 65 87 113 136
166 166 164 162 160 159 157 149 133 55 57 89 150 158 156 157 158 160 161 154 147 137 122 139 157 178 185 185 183 178 190 223 183 148 153 170 166 161 154 160 160 136 198
164 168 169 170 169 169 171 167 161 158 150 88 80 162 161 159 161 164 155 135 132 145 162 177 190 195 194 192 193 193 196 193 143 164 178 190 178 163 171 198 199 193 205
166 171 171 168 167 167 167 169 166 163 159 157 144 149 170 158 154 160 153 155 173 189 201 204 205 203 203 195 191 186 177 181 186 178 192 204 188 165 190 214 212 213 200
168 166 163 161 164 165 165 168 170 168 168 173 181 183 161 143 160 176 185 189 192 201 205 208 211 206 195 184 179 176 167 167 167 172 216 218 206 189 197 208 208 213 223
164 165 160 158 169 171 170 174 174 174 178 187 197 190 172 175 186 190 195 201 203 206 206 204 205 202 192 179 168 165 159 165 171 172 181 219 220 223 226 219 226 226 230
159 161 164 166 173 174 176 175 173 177 182 185 188 184 181 182 187 195 206 212 211 210 197 188 198 201 189 176 172 165 163 168 177 174 181 214 235 246 233 222 243 245 230
158 160 163 166 175 177 176 175 177 181 182 183 181 178 181 197 203 205 209 211 211 205 188 175 177 180 167 162 162 163 171 187 200 195 190 204 221 231 233 234 228 229 243
162 169 174 175 178 181 181 181 179 178 176 177 180 182 186 195 202 207 207 207 196 188 175 168 169 170 163 154 156 165 175 188 193 194 188 188 199 216 228 235 231 224 231
165 169 173 174 177 178 175 174 176 176 176 180 186 189 190 193 199 204 205 191 177 171 164 162 163 164 162 158 159 164 172 171 167 165 170 172 179 191 205 229 238 250 268
168 169 172 171 172 172 170 170 173 173 176 183 187 188 190 192 193 192 183 171 168 164 158 156 157 159 158 159 158 150 134 124 111 100 98 111 126 113 78 331 304 285 271
Height
1542 1543 1544 1544 1544 1544 1544 1544 1544 1543 1543 1542 1541 1540 1539 1537 1536 1535 1534 1533 1532 1531 1530 1530 1529 1529 1529 1529 1528 1529 1530 1531 1531 1533 1534 1535 1536 1535 1535 1535 1535 1534 1534
1541 1542 1543 1543 1544 1544 1543 1543 1543 1543 1542 1541 1540 1539 1538 1537 1536 1535 1534 1533 1532 1531 1530 1530 1529 1529 1528 1528 1528 1529 1529 1530 1531 1532 1533 1534 1535 1535 1535 1535 1535 1535 1534
1541 1542 1542 1543 1543 1543 1543 1543 1542 1542 1541 1540 1539 1538 1538 1537 1536 1535 1534 1533 1532 1531 1531 1530 1530 1529 1529 1529 1528 1529 1529 1530 1531 1531 1533 1534 1535 1535 1536 1536 1536 1535 1536
1540 1541 1542 1542 1542 1542 1542 1542 1542 1541 1541 1540 1539 1539 1538 1537 1537 1536 1535 1534 1533 1532 1531 1531 1530 1530 1530 1530 1529 1529 1530 1530 1531 1532 1533 1534 1535 1535 1536 1536 1536 1537 1537
1539 1540 1541 1541 1541 1542 1542 1542 1542 1541 1541 1540 1540 1539 1539 1538 1537 1536 1535 1534 1533 1532 1532 1531 1531 1531 1531 1531 1531 1531 1531 1531 1531 1532 1533 1534 1534 1535 1536 1536 1537 1537 1538
1537 1539 1539 1540 1541 1541 1542 1542 1541 1541 1541 1541 1540 1540 1539 1538 1538 1537 1536 1535 1534 1533 1533 1532 1532 1532 1532 1532 1532 1532 1532 1532 1532 1532 1533 1533 1534 1535 1536 1537 1537 1537 1538
1536 1537 1538 1539 1540 1541 1541 1541 1541 1540 1540 1540 1540 1540 1539 1539 1538 1538 1537 1537 1536 1535 1535 1534 1534 1534 1534 1533 1533 1533 1533 1533 1534 1534 1534 1534 1535 1536 1537 1537 1538 1538 1538
1534 1535 1537 1538 1538 1539 1540 1540 1540 1540 1540 1540 1540 1540 1540 1539 1539 1539 1538 1538 1537 1536 1536 1536 1535 1535 1535 1535 1534 1534 1534 1534 1535 1535 1535 1536 1536 1537 1538 1538 1539 1539 1540
1532 1534 1535 1536 1537 1538 1539 1539 1540 1540 1540 1540 1540 1540 1540 1540 1540 1540 1539 1539 1538 1537 1537 1537 1537 1536 1536 1536 1536 1535 1535 1536 1536 1537 1537 1537 1538 1538 1539 1539 1539 1539 1539
1530 1532 1533 1535 1536 1537 1537 1538 1539 1540 1540 1540 1540 1541 1541 1540 1540 1540 1540 1540 1539 1538 1538 1538 1538 1537 1537 1537 1537 1537 1537 1537 1538 1538 1538 1538 1539 1539 1539 1539 1540 1540 1540
1529 1530 1531 1533 1534 1535 1536 1537 1538 1539 1539 1540 1540 1541 1541 1541 1541 1541 1541 1540 1540 1539 1539 1538 1538 1539 1539 1538 1538 1538 1538 1538 1539 1539 1539 1539 1539 1539 1540 1540 1540 1540 1540
1527 1528 1530 1531 1532 1534 1535 1536 1537 1538 1538 1539 1540 1540 1540 1541 1541 1541 1541 1541 1541 1540 1540 1540 1539 1540 1540 1539 1539 1539 1540 1540 1540 1540 1540 1540 1540 1540 1540 1540 1540 1540 1540
1525 1526 1528 1529 1531 1532 1533 1534 1536 1536 1537 1538 1539 1539 1540 1540 1540 1541 1541 1541 1541 1541 1541 1541 1541 1541 1540 1540 1540 1541 1541 1541 1541 1541 1540 1541 1541 1541 1541 1541 1541 1541 1541
1522 1524 1526 1527 1528 1530 1532 1533 1534 1534 1535 1536 1537 1538 1539 1539 1539 1540 1540 1541 1541 1541 1541 1541 1542 1542 1542 1541 1541 1541 1542 1542 1542 1541 1541 1541 1542 1541 1541 1541 1541 1541 1540
1520 1522 1523 1525 1526 1528 1529 1531 1532 1533 1534 1535 1536 1537 1537 1538 1538 1539 1539 1540 1540 1541 1541 1541 1541 1542 1542 1542 1542 1542 1542 1542 1542 1542 1542 1542 1541 1541 1541 1541 1540 1540 1540
1518 1519 1521 1523 1524 1526 1527 1528 1530 1531 1532 1534 1535 1536 1536 1537 1537 1538 1538 1539 1540 1540 1541 1540 1541 1541 1541 1542 1542 1542 1542 1542 1542 1542 1541 1541 1541 1541 1540 1540 1540 1540 1539
1515 1517 1518 1520 1522 1524 1525 1526 1527 1529 1531 1532 1533 1534 1535 1536 1536 1537 1537 1538 1539 1539 1540 1540 1540 1541 1541 1541 1541 1541 1542 1542 1541 1541 1541 1541 1540 1540 1540 1539 1539 1538 1538
1513 1515 1516 1518 1520 1522 1523 1525 1526 1527 1528 1529 1531 1532 1533 1534 1535 1535 1536 1537 1537 1538 1538 1539 1540 1540 1540 1540 1540 1540 1541 1541 1540 1540 1540 1539 1539 1539 1538 1538 1538 1537 1536
1510 1512 1514 1516 1517 1519 1521 1523 1524 1525 1526 1527 1528 1529 1531 1532 1533 1534 1534 1535 1535 1536 1537 1538 1538 1539 1539 1539 1539 1539 1539 1539 1539 1538 1538 1538 1537 1537 1537 1536 1536 1536 1535
1507 1509 1511 1513 1515 1517 1518 1519 1521 1522 1523 1524 1526 1527 1528 1529 1530 1531 1532 1532 1533 1534 1535 1536 1536 1537 1537 1537 1537 1537 1537 1537 1537 1536 1536 1536 1536 1535 1535 1534 1534 1533 1533
1504 1506 1509 1510 1512 1514 1515 1517 1518 1520 1521 1522 1523 1525 1526 1527 1528 1528 1529 1530 1531 1532 1533 1534 1534 1535 1535 1535 1535 1535 1535 1535 1534 1534 1534 1534 1533 1533 1532 1532 1531 1531 1530
1501 1503 1506 1507 1510 1511 1513 1514 1516 1517 1519 1520 1521 1522 1523 1524 1525 1526 1527 1528 1529 1530 1530 1531 1531 1532 1532 1532 1532 1532 1532 1532 1532 1532 1531 1531 1531 1530 1529 1529 1528 1528 1527
1499 1500 1503 1505 1507 1508 1510 1511 1513 1514 1516 1517 1518 1519 1520 1521 1522 1523 1524 1525 1526 1527 1527 1528 1528 1529 1529 1529 1530 1530 1530 1529 1529 1529 1528 1528 1528 1527 1526 1526 1525 1525 1524
1497 1499 1500 1502 1504 1506 1507 1509 1510 1512 1513 1514 1515 1516 1517 1518 1519 1520 1521 1522 1523 1524 1524 1525 1525 1526 1526 1526 1527 1527 1527 1527 1526 1526 1526 1525 1524 1524 1523 1523 1522 1522 1521
1496 1497 1499 1500 1502 1504 1505 1506 1508 1509 1510 1512 1513 1514 1514 1515 1516 1517 1518 1519 1520 1520 1521 1521 1522 1522 1523 1523 1523 1523 1523 1523 1523 1523 1522 1522 1521 1521 1520 1520 1519 1519 1518
1495 1496 1498 1499 1501 1502 1503 1504 1505 1507 1508 1509 1510 1511 1511 1512 1513 1514 1515 1516 1517 1517 1518 1518 1519 1520 1520 1520 1520 1520 1520 1520 1520 1520 1519 1519 1518 1518 1517 1517 1516 1516 1515